Location: Cardiff
(53.7833°N, 113.6000°W)
Time: 19:11:20
(UTC+00:00)

RS-15 - Pass Details

Date: 05 December 2023
Orbit: 1893 x 2151 km, 64.8° (Epoch: 24 February)

Event Time Altitude Azimuth Distance (km) Brightness Sun altitude
Rises 06:28:48 0° 249° (WSW) 5,640 10.5 -56.8°
Enters shadow 06:31:21 - 252° (WSW) 4,906 10.1 -57.0°
Exits shadow 06:54:17 15° 51° (NE) 4,033 9.7 -58.0°
Drops below altitude 10° 06:55:42 10° 54° (NE) 4,426 10.0 -58.1°
Sets 06:59:04 0° 58° (ENE) 5,395 10.5 -58.2°
